| time (UTC) | temp F | wind direction | speed MPH | gust MPH | rain 1hr in | rain 24hr in | rain mn in | humidity % | barometer mb |
| 20260507164015 | 45 | 173 | 5.0 | 15.0 | 0.00 | 0.50 | 0.50 | 96 | 1003.0 |
| 20260507163514 | 45 | 206 | 7.0 | 17.0 | 0.01 | 0.50 | 0.50 | 96 | 1003.5 |
| 20260507163030 | 44 | 185 | 6.0 | 17.0 | 0.01 | 0.50 | 0.50 | 96 | 1003.6 |
| 20260507162513 | 44 | 179 | 8.0 | 18.0 | 0.01 | 0.50 | 0.50 | 96 | 1003.7 |
| 20260507162014 | 44 | 187 | 7.0 | 18.0 | 0.01 | 0.50 | 0.50 | 95 | 1003.9 |
| 20260507161530 | 44 | 212 | 7.0 | 18.0 | 0.01 | 0.50 | 0.50 | 95 | 1003.6 |
| 20260507161016 | 44 | 188 | 6.0 | 16.0 | 0.02 | 0.50 | 0.50 | 95 | 1003.2 |
| 20260507160516 | 45 | 195 | 7.0 | 13.0 | 0.03 | 0.50 | 0.50 | 95 | 1003.1 |
| 20260507160032 | 45 | 195 | 5.0 | 13.0 | 0.04 | 0.50 | 0.50 | 95 | 1003.0 |
| 20260507155513 | 45 | 252 | 3.0 | 9.0 | 0.05 | 0.50 | 0.50 | 95 | 1002.7 |
| 20260507155012 | 45 | 220 | 3.0 | 9.0 | 0.06 | 0.50 | 0.50 | 95 | 1003.3 |
| 20260507154532 | 45 | 200 | 4.0 | 13.0 | 0.07 | 0.50 | 0.50 | 95 | 1003.0 |
| 20260507154019 | 46 | 181 | 5.0 | 15.0 | 0.08 | 0.50 | 0.50 | 95 | 1003.7 |
| 20260507153514 | 46 | 211 | 5.0 | 15.0 | 0.08 | 0.49 | 0.49 | 95 | 1003.9 |
| 20260507153031 | 46 | 202 | 7.0 | 13.0 | 0.09 | 0.49 | 0.49 | 95 | 1003.6 |
| 20260507152515 | 46 | 220 | 4.0 | 12.0 | 0.10 | 0.49 | 0.49 | 96 | 1003.5 |
| 20260507152015 | 45 | 173 | 7.0 | 12.0 | 0.11 | 0.49 | 0.49 | 95 | 1002.7 |
| 20260507151533 | 45 | 197 | 5.0 | 14.0 | 0.11 | 0.48 | 0.48 | 95 | 1003.9 |
| 20260507151018 | 45 | 139 | 4.0 | 14.0 | 0.13 | 0.48 | 0.48 | 95 | 1003.9 |
| 20260507150516 | 45 | 158 | 7.0 | 14.0 | 0.13 | 0.47 | 0.47 | 95 | 1003.9 |
| 20260507150030 | 45 | 179 | 3.0 | 12.0 | 0.14 | 0.46 | 0.46 | 95 | 1003.9 |
| 20260507145515 | 45 | 206 | 4.0 | 12.0 | 0.15 | 0.45 | 0.45 | 95 | 1003.7 |
| 20260507145016 | 45 | 236 | 4.0 | 12.0 | 0.16 | 0.44 | 0.44 | 95 | 1003.6 |
| 20260507144530 | 45 | 191 | 3.0 | 11.0 | 0.17 | 0.43 | 0.43 | 95 | 1003.7 |
| 20260507144014 | 45 | 196 | 5.0 | 11.0 | 0.16 | 0.41 | 0.41 | 95 | 1003.6 |
| 20260507143513 | 46 | 195 | 4.0 | 8.0 | 0.17 | 0.41 | 0.41 | 95 | 1003.5 |
| 20260507143031 | 46 | 195 | 4.0 | 8.0 | 0.18 | 0.40 | 0.40 | 95 | 1003.4 |
| 20260507142518 | 46 | 180 | 4.0 | 9.0 | 0.18 | 0.39 | 0.39 | 94 | 1003.6 |
| 20260507142015 | 46 | 192 | 3.0 | 9.0 | 0.19 | 0.38 | 0.38 | 94 | 1003.7 |
| 20260507141529 | 47 | 263 | 3.0 | 8.0 | 0.19 | 0.37 | 0.37 | 94 | 1003.6 |
| 20260507141015 | 48 | 188 | 3.0 | 8.0 | 0.18 | 0.35 | 0.35 | 94 | 1004.0 |
| 20260507140516 | 49 | 245 | 2.0 | 5.0 | 0.18 | 0.34 | 0.34 | 95 | 1003.9 |
| 20260507140036 | 49 | 203 | 2.0 | 6.0 | 0.18 | 0.32 | 0.32 | 95 | 1003.8 |
| 20260507135514 | 49 | 221 | 2.0 | 11.0 | 0.18 | 0.30 | 0.30 | 95 | 1004.0 |
| 20260507135016 | 49 | 258 | 3.0 | 11.0 | 0.17 | 0.28 | 0.28 | 94 | 1003.8 |
| 20260507134530 | 51 | 279 | 5.0 | 11.0 | 0.15 | 0.26 | 0.26 | 96 | 1003.7 |
| 20260507134014 | 50 | 210 | 3.0 | 8.0 | 0.14 | 0.25 | 0.25 | 96 | 1003.3 |
| 20260507133513 | 48 | 131 | 4.0 | 8.0 | 0.12 | 0.23 | 0.23 | 96 | 1003.5 |
| 20260507133037 | 47 | 126 | 4.0 | 14.0 | 0.11 | 0.22 | 0.22 | 96 | 1003.9 |
| 20260507132512 | 46 | 123 | 5.0 | 15.0 | 0.09 | 0.20 | 0.20 | 95 | 1004.2 |
| 20260507132014 | 46 | 167 | 6.0 | 15.0 | 0.08 | 0.19 | 0.19 | 95 | 1004.6 |
| 20260507131538 | 46 | 206 | 5.0 | 14.0 | 0.07 | 0.18 | 0.18 | 95 | 1004.8 |
| 20260507131014 | 46 | 198 | 5.0 | 16.0 | 0.06 | 0.17 | 0.17 | 94 | 1004.8 |
| 20260507130517 | 46 | 195 | 7.0 | 16.0 | 0.04 | 0.15 | 0.15 | 94 | 1005.0 |
| 20260507130036 | 46 | 149 | 5.0 | 14.0 | 0.02 | 0.13 | 0.13 | 94 | 1005.0 |
| 20260507125515 | 46 | 216 | 6.0 | 14.0 | 0.01 | 0.12 | 0.12 | 94 | 1005.0 |
| 20260507125014 | 46 | 202 | 6.0 | 14.0 | 0.00 | 0.11 | 0.11 | 94 | 1004.8 |
| 20260507124532 | 46 | 141 | 4.0 | 13.0 | 0.00 | 0.11 | 0.11 | 94 | 1004.7 |
| 20260507124016 | 46 | 152 | 4.0 | 12.0 | 0.00 | 0.11 | 0.11 | 94 | 1004.7 |
| 20260507123514 | 46 | 241 | 5.0 | 15.0 | 0.00 | 0.11 | 0.11 | 94 | 1004.7 |
| 20260507123034 | 46 | 197 | 4.0 | 15.0 | 0.01 | 0.11 | 0.11 | 94 | 1004.6 |
| 20260507122518 | 46 | 189 | 4.0 | 14.0 | 0.01 | 0.11 | 0.11 | 93 | 1004.5 |
| 20260507122018 | 47 | 214 | 4.0 | 11.0 | 0.02 | 0.11 | 0.11 | 93 | 1004.6 |
| 20260507121533 | 47 | 201 | 3.0 | 11.0 | 0.03 | 0.11 | 0.11 | 93 | 1004.3 |
| 20260507121015 | 47 | 197 | 3.0 | 10.0 | 0.03 | 0.11 | 0.11 | 93 | 1003.9 |
| 20260507120514 | 47 | 191 | 3.0 | 10.0 | 0.03 | 0.11 | 0.11 | 92 | 1004.4 |
| 20260507120033 | 48 | 214 | 4.0 | 10.0 | 0.03 | 0.11 | 0.11 | 93 | 1004.5 |
| 20260507115517 | 48 | 220 | 4.0 | 10.0 | 0.03 | 0.11 | 0.11 | 92 | 1004.4 |
| 20260507115013 | 49 | 216 | 4.0 | 10.0 | 0.03 | 0.11 | 0.11 | 92 | 1004.2 |
| 20260507114530 | 49 | 240 | 3.0 | 8.0 | 0.03 | 0.11 | 0.11 | 92 | 1004.2 |
| 20260507114014 | 49 | 233 | 3.0 | 8.0 | 0.03 | 0.11 | 0.11 | 93 | 1004.0 |
| 20260507113514 | 50 | 196 | 2.0 | 8.0 | 0.03 | 0.11 | 0.11 | 93 | 1004.3 |
| 20260507113031 | 50 | 260 | 2.0 | 6.0 | 0.02 | 0.10 | 0.10 | 93 | 1004.4 |
| 20260507112518 | 49 | 177 | 3.0 | 11.0 | 0.02 | 0.10 | 0.10 | 93 | 1004.2 |
| 20260507112015 | 49 | 167 | 4.0 | 13.0 | 0.01 | 0.09 | 0.09 | 92 | 1004.4 |
| 20260507111532 | 49 | 187 | 5.0 | 13.0 | 0.00 | 0.08 | 0.08 | 91 | 1004.8 |
| 20260507111015 | 49 | 203 | 4.0 | 12.0 | 0.00 | 0.08 | 0.08 | 91 | 1004.9 |
| 20260507110513 | 49 | 184 | 3.0 | 12.0 | 0.00 | 0.08 | 0.08 | 90 | 1004.4 |
| 20260507110032 | 50 | 204 | 3.0 | 9.0 | 0.00 | 0.08 | 0.08 | 88 | 1004.2 |
| 20260507105517 | 52 | 197 | 3.0 | 10.0 | 0.00 | 0.08 | 0.08 | 87 | 1004.4 |
| 20260507105017 | 55 | 227 | 3.0 | 11.0 | 0.00 | 0.08 | 0.08 | 89 | 1004.3 |
| 20260507104545 | 56 | 160 | 6.0 | 11.0 | 0.00 | 0.08 | 0.08 | 92 | 1003.8 |
| 20260507104017 | 56 | 196 | 4.0 | 11.0 | 0.00 | 0.08 | 0.08 | 92 | 1003.7 |
| 20260507103516 | 56 | 181 | 6.0 | 13.0 | 0.00 | 0.08 | 0.08 | 92 | 1003.7 |
| 20260507103053 | 56 | 168 | 5.0 | 13.0 | 0.00 | 0.08 | 0.08 | 92 | 1003.8 |
| 20260507102517 | 56 | 163 | 4.0 | 10.0 | 0.00 | 0.08 | 0.08 | 92 | 1003.7 |
| 20260507102017 | 56 | 166 | 4.0 | 14.0 | 0.00 | 0.08 | 0.08 | 92 | 1003.5 |
| 20260507101538 | 56 | 189 | 5.0 | 14.0 | 0.00 | 0.08 | 0.08 | 92 | 1003.4 |
| 20260507101020 | 56 | 143 | 6.0 | 14.0 | 0.00 | 0.08 | 0.08 | 92 | 1003.6 |
| 20260507100515 | 56 | 136 | 7.0 | 14.0 | 0.01 | 0.08 | 0.08 | 92 | 1003.8 |
| 20260507100033 | 56 | 181 | 7.0 | 16.0 | 0.01 | 0.08 | 0.08 | 92 | 1004.0 |
| 20260507095517 | 56 | 171 | 8.0 | 18.0 | 0.01 | 0.08 | 0.08 | 92 | 1003.9 |
| 20260507095016 | 56 | 163 | 8.0 | 20.0 | 0.01 | 0.08 | 0.08 | 92 | 1004.1 |
| 20260507094537 | 56 | 168 | 9.0 | 20.0 | 0.01 | 0.08 | 0.08 | 92 | 1004.2 |
| 20260507094017 | 57 | 193 | 7.0 | 19.0 | 0.01 | 0.08 | 0.08 | 92 | 1004.2 |
| 20260507093518 | 57 | 158 | 5.0 | 19.0 | 0.02 | 0.08 | 0.08 | 92 | 1004.1 |
| 20260507093037 | 57 | 167 | 6.0 | 22.0 | 0.02 | 0.08 | 0.08 | 92 | 1004.2 |
| 20260507092517 | 57 | 173 | 7.0 | 22.0 | 0.02 | 0.08 | 0.08 | 92 | 1004.0 |
| 20260507092016 | 57 | 158 | 6.0 | 22.0 | 0.02 | 0.08 | 0.08 | 92 | 1003.7 |
| 20260507091539 | 57 | 147 | 7.0 | 16.0 | 0.02 | 0.08 | 0.08 | 92 | 1004.0 |
| 20260507091018 | 57 | 205 | 6.0 | 16.0 | 0.01 | 0.07 | 0.07 | 92 | 1004.4 |
| 20260507090515 | 57 | 183 | 6.0 | 13.0 | 0.01 | 0.07 | 0.07 | 91 | 1004.2 |
| 20260507090036 | 57 | 185 | 5.0 | 15.0 | 0.01 | 0.07 | 0.07 | 91 | 1004.2 |
| 20260507085514 | 57 | 146 | 4.0 | 18.0 | 0.01 | 0.07 | 0.07 | 91 | 1004.0 |
| 20260507085017 | 57 | 150 | 8.0 | 18.0 | 0.01 | 0.07 | 0.07 | 90 | 1003.9 |
| 20260507084541 | 57 | 195 | 9.0 | 16.0 | 0.01 | 0.07 | 0.07 | 90 | 1004.0 |
| 20260507084015 | 58 | 168 | 7.0 | 15.0 | 0.01 | 0.07 | 0.07 | 90 | 1004.0 |
| 20260507083519 | 58 | 171 | 8.0 | 21.0 | 0.00 | 0.06 | 0.06 | 89 | 1004.0 |
| 20260507083033 | 58 | 204 | 8.0 | 21.0 | 0.00 | 0.06 | 0.06 | 89 | 1004.0 |
| 20260507082517 | 58 | 162 | 9.0 | 22.0 | 0.00 | 0.06 | 0.06 | 88 | 1003.7 |
| 20260507082016 | 58 | 156 | 7.0 | 22.0 | 0.00 | 0.06 | 0.06 | 88 | 1003.6 |
| 20260507081530 | 58 | 156 | 10.0 | 22.0 | 0.00 | 0.06 | 0.06 | 88 | 1003.7 |
| 20260507081021 | 58 | 175 | 10.0 | 22.0 | 0.00 | 0.06 | 0.06 | 88 | 1003.5 |
| 20260507080516 | 58 | 127 | 9.0 | 23.0 | 0.00 | 0.06 | 0.06 | 88 | 1003.5 |
| 20260507080046 | 58 | 173 | 11.0 | 29.0 | 0.00 | 0.06 | 0.06 | 88 | 1003.4 |
| 20260507075514 | 58 | 156 | 13.0 | 29.0 | 0.00 | 0.06 | 0.06 | 88 | 1003.4 |
| 20260507075014 | 58 | 145 | 12.0 | 27.0 | 0.00 | 0.06 | 0.06 | 88 | 1003.1 |
| 20260507074530 | 58 | 150 | 14.0 | 27.0 | 0.00 | 0.06 | 0.06 | 89 | 1003.3 |
| 20260507074015 | 58 | 137 | 12.0 | 25.0 | 0.00 | 0.06 | 0.06 | 89 | 1003.4 |
| 20260507073516 | 58 | 127 | 12.0 | 28.0 | 0.00 | 0.06 | 0.06 | 88 | 1003.5 |
| 20260507073030 | 58 | 162 | 14.0 | 28.0 | 0.00 | 0.06 | 0.06 | 88 | 1003.2 |
| 20260507072513 | 58 | 138 | 13.0 | 28.0 | 0.00 | 0.06 | 0.06 | 88 | 1003.5 |
| 20260507072013 | 58 | 153 | 11.0 | 24.0 | 0.00 | 0.06 | 0.06 | 87 | 1003.8 |
| 20260507071531 | 58 | 160 | 12.0 | 28.0 | 0.00 | 0.06 | 0.06 | 87 | 1004.3 |
| 20260507071015 | 58 | 156 | 12.0 | 28.0 | 0.00 | 0.06 | 0.06 | 87 | 1004.4 |
| 20260507070515 | 58 | 185 | 9.0 | 26.0 | 0.00 | 0.06 | 0.06 | 87 | 1004.6 |
| 20260507070046 | 58 | 155 | 16.0 | 28.0 | 0.00 | 0.06 | 0.06 | 87 | 1004.7 |
| 20260507065512 | 59 | 152 | 13.0 | 28.0 | 0.00 | 0.06 | 0.06 | 87 | 1004.7 |
| 20260507065014 | 59 | 143 | 14.0 | 24.0 | 0.00 | 0.06 | 0.06 | 87 | 1004.7 |
| 20260507064532 | 59 | 131 | 9.0 | 24.0 | 0.00 | 0.06 | 0.06 | 88 | 1004.9 |
| 20260507064017 | 58 | 185 | 6.0 | 20.0 | 0.00 | 0.06 | 0.06 | 88 | 1005.1 |
| 20260507063515 | 58 | 175 | 10.0 | 20.0 | 0.01 | 0.06 | 0.06 | 88 | 1005.2 |
| 20260507063035 | 58 | 139 | 6.0 | 21.0 | 0.01 | 0.06 | 0.06 | 89 | 1005.5 |
| 20260507062514 | 58 | 162 | 9.0 | 21.0 | 0.01 | 0.06 | 0.06 | 89 | 1005.4 |
| 20260507062014 | 58 | 149 | 8.0 | 17.0 | 0.01 | 0.06 | 0.06 | 89 | 1005.6 |
| 20260507061532 | 58 | 150 | 6.0 | 19.0 | 0.01 | 0.06 | 0.06 | 89 | 1005.7 |
| 20260507061014 | 58 | 162 | 7.0 | 19.0 | 0.02 | 0.06 | 0.06 | 89 | 1005.7 |
| 20260507060514 | 58 | 166 | 8.0 | 19.0 | 0.02 | 0.06 | 0.06 | 90 | 1005.6 |
| 20260507060033 | 58 | 135 | 6.0 | 15.0 | 0.02 | 0.06 | 0.06 | 89 | 1005.7 |
| 20260507055515 | 58 | 156 | 9.0 | 17.0 | 0.02 | 0.06 | 0.06 | 89 | 1006.0 |
| 20260507055014 | 58 | 146 | 7.0 | 18.0 | 0.02 | 0.06 | 0.06 | 90 | 1006.2 |
| 20260507054532 | 58 | 166 | 6.0 | 20.0 | 0.02 | 0.06 | 0.06 | 90 | 1006.3 |
| 20260507054019 | 58 | 156 | 10.0 | 20.0 | 0.02 | 0.06 | 0.06 | 90 | 1006.4 |
| 20260507053515 | 58 | 121 | 8.0 | 16.0 | 0.02 | 0.05 | 0.05 | 90 | 1006.6 |
| 20260507053033 | 58 | 135 | 7.0 | 16.0 | 0.03 | 0.05 | 0.05 | 90 | 1006.9 |
| 20260507052514 | 58 | 162 | 5.0 | 16.0 | 0.04 | 0.05 | 0.05 | 90 | 1007.0 |
| 20260507052016 | 58 | 146 | 6.0 | 15.0 | 0.04 | 0.05 | 0.05 | 90 | 1007.1 |
| 20260507051532 | 57 | 166 | 7.0 | 17.0 | 0.05 | 0.05 | 0.05 | 90 | 1007.1 |
| 20260507051014 | 57 | 141 | 8.0 | 17.0 | 0.04 | 0.04 | 0.04 | 90 | 1007.3 |
| 20260507050514 | 57 | 125 | 9.0 | 17.0 | 0.04 | 0.04 | 0.04 | 89 | 1007.4 |
| 20260507050041 | 57 | 141 | 6.0 | 20.0 | 0.04 | 0.04 | 0.04 | 89 | 1007.5 |
| 20260507045514 | 57 | 131 | 6.0 | 20.0 | 0.04 | 0.04 | 0.04 | 89 | 1007.7 |
| 20260507045015 | 57 | 163 | 8.0 | 20.0 | 0.04 | 0.04 | 0.04 | 88 | 1007.7 |
| 20260507044530 | 58 | 150 | 9.0 | 20.0 | 0.04 | 0.04 | 0.04 | 88 | 1008.0 |
| 20260507044015 | 58 | 125 | 9.0 | 20.0 | 0.04 | 0.04 | 0.04 | 87 | 1008.3 |
| 20260507043515 | 58 | 160 | 9.0 | 21.0 | 0.03 | 0.03 | 0.03 | 87 | 1008.5 |
| 20260507043032 | 58 | 130 | 9.0 | 21.0 | 0.02 | 0.02 | 0.02 | 86 | 1008.6 |
| 20260507042513 | 59 | 119 | 8.0 | 19.0 | 0.01 | 0.01 | 0.01 | 85 | 1008.5 |
| 20260507042015 | 59 | 161 | 8.0 | 19.0 | 0.01 | 0.01 | 0.01 | 84 | 1008.8 |
| 20260507041533 | 59 | 202 | 9.0 | 19.0 | 0.00 | 0.00 | 0.00 | 83 | 1009.0 |
| 20260507041014 | 59 | 160 | 10.0 | 20.0 | 0.00 | 0.00 | 0.00 | 82 | 1009.1 |
| 20260507040515 | 59 | 162 | 11.0 | 20.0 | 0.00 | 0.00 | 0.00 | 81 | 1009.4 |
| 20260507040035 | 59 | 136 | 9.0 | 20.0 | 0.00 | 0.00 | 0.00 | 81 | 1009.6 |
| 20260507035515 | 59 | 108 | 8.0 | 21.0 | 0.00 | 0.00 | 0.00 | 81 | 1009.7 |
| 20260507035017 | 59 | 150 | 9.0 | 21.0 | 0.00 | 0.00 | 0.00 | 81 | 1009.6 |
| 20260507034530 | 59 | 143 | 11.0 | 21.0 | 0.00 | 0.00 | 0.00 | 81 | 1009.5 |
| 20260507034013 | 59 | 141 | 11.0 | 21.0 | 0.00 | 0.00 | 0.00 | 81 | 1009.6 |
| 20260507033514 | 59 | 141 | 9.0 | 21.0 | 0.00 | 0.00 | 0.00 | 81 | 1009.6 |
| 20260507033030 | 60 | 143 | 8.0 | 21.0 | 0.00 | 0.00 | 0.00 | 81 | 1009.5 |
| 20260507032515 | 60 | 153 | 11.0 | 21.0 | 0.00 | 0.00 | 0.00 | 81 | 1009.6 |
| 20260507032014 | 60 | 138 | 9.0 | 19.0 | 0.00 | 0.00 | 0.00 | 81 | 1009.8 |
| 20260507031532 | 60 | 130 | 10.0 | 17.0 | 0.00 | 0.00 | 0.00 | 81 | 1009.9 |
| 20260507031020 | 60 | 160 | 9.0 | 19.0 | 0.00 | 0.00 | 0.00 | 80 | 1010.1 |
| 20260507030512 | 60 | 152 | 9.0 | 21.0 | 0.00 | 0.00 | 0.00 | 80 | 1010.4 |
| 20260507030033 | 60 | 165 | 8.0 | 21.0 | 0.00 | 0.00 | 0.00 | 80 | 1010.5 |
| 20260507025514 | 60 | 148 | 11.0 | 20.0 | 0.00 | 0.00 | 0.00 | 80 | 1010.4 |
| 20260507025015 | 60 | 174 | 8.0 | 17.0 | 0.00 | 0.00 | 0.00 | 80 | 1010.6 |
| 20260507024535 | 60 | 137 | 10.0 | 16.0 | 0.00 | 0.00 | 0.00 | 80 | 1010.8 |
| 20260507024014 | 60 | 139 | 9.0 | 16.0 | 0.00 | 0.00 | 0.00 | 80 | 1010.9 |
| 20260507023515 | 60 | 166 | 7.0 | 15.0 | 0.00 | 0.00 | 0.00 | 80 | 1011.0 |
| 20260507023032 | 60 | 136 | 8.0 | 16.0 | 0.00 | 0.00 | 0.00 | 80 | 1011.1 |
| 20260507022514 | 60 | 156 | 6.0 | 16.0 | 0.00 | 0.00 | 0.00 | 80 | 1011.2 |
| 20260507022016 | 60 | 127 | 8.0 | 16.0 | 0.00 | 0.00 | 0.00 | 80 | 1011.3 |
| 20260507021536 | 60 | 168 | 8.0 | 18.0 | 0.00 | 0.00 | 0.00 | 80 | 1011.3 |
| 20260507021016 | 60 | 168 | 8.0 | 18.0 | 0.00 | 0.00 | 0.00 | 80 | 1011.3 |
| 20260507020514 | 60 | 204 | 9.0 | 18.0 | 0.00 | 0.00 | 0.00 | 80 | 1011.1 |
| 20260507020031 | 61 | 164 | 7.0 | 19.0 | 0.00 | 0.00 | 0.00 | 80 | 1011.0 |
| 20260507015512 | 61 | 125 | 10.0 | 19.0 | 0.00 | 0.00 | 0.00 | 79 | 1010.6 |
| 20260507015015 | 61 | 132 | 11.0 | 19.0 | 0.00 | 0.00 | 0.00 | 78 | 1010.8 |
| 20260507014531 | 62 | 139 | 8.0 | 17.0 | 0.00 | 0.00 | 0.00 | 77 | 1011.2 |
| 20260507014012 | 62 | 142 | 7.0 | 20.0 | 0.00 | 0.00 | 0.00 | 77 | 1011.1 |
| 20260507013514 | 62 | 150 | 6.0 | 20.0 | 0.00 | 0.00 | 0.00 | 77 | 1011.4 |
| 20260507013033 | 62 | 133 | 9.0 | 20.0 | 0.00 | 0.00 | 0.00 | 77 | 1011.4 |
| 20260507012513 | 62 | 121 | 5.0 | 12.0 | 0.00 | 0.00 | 0.00 | 76 | 1011.7 |
| 20260507012016 | 63 | 123 | 5.0 | 21.0 | 0.00 | 0.00 | 0.00 | 76 | 1011.8 |
| 20260507011541 | 63 | 181 | 8.0 | 21.0 | 0.00 | 0.00 | 0.00 | 76 | 1012.5 |
| 20260507011015 | 63 | 159 | 10.0 | 21.0 | 0.00 | 0.00 | 0.00 | 76 | 1012.7 |
| 20260507010518 | 63 | 156 | 7.0 | 23.0 | 0.00 | 0.00 | 0.00 | 76 | 1012.7 |
| 20260507010041 | 63 | 177 | 10.0 | 23.0 | 0.00 | 0.00 | 0.00 | 75 | 1012.3 |
| 20260507005515 | 63 | 147 | 11.0 | 22.0 | 0.00 | 0.00 | 0.00 | 75 | 1012.4 |
| 20260507005012 | 63 | 158 | 10.0 | 23.0 | 0.00 | 0.00 | 0.00 | 75 | 1012.3 |
| 20260507004531 | 63 | 142 | 12.0 | 23.0 | 0.00 | 0.00 | 0.00 | 75 | 1012.5 |
| 20260507004016 | 63 | 162 | 12.0 | 25.0 | 0.00 | 0.00 | 0.00 | 75 | 1012.4 |
| 20260507003514 | 63 | 169 | 12.0 | 27.0 | 0.00 | 0.00 | 0.00 | 75 | 1012.3 |
| 20260507003031 | 63 | 149 | 12.0 | 27.0 | 0.00 | 0.00 | 0.00 | 75 | 1012.5 |
| 20260507002513 | 63 | 129 | 9.0 | 20.0 | 0.00 | 0.00 | 0.00 | 75 | 1012.6 |
| 20260507002014 | 63 | 176 | 8.0 | 20.0 | 0.00 | 0.00 | 0.00 | 75 | 1012.9 |
| 20260507001549 | 63 | 181 | 7.0 | 21.0 | 0.00 | 0.00 | 0.00 | 75 | 1012.8 |
| 20260507001013 | 63 | 148 | 9.0 | 25.0 | 0.00 | 0.00 | 0.00 | 75 | 1012.8 |
| 20260507000513 | 63 | 170 | 12.0 | 25.0 | 0.00 | 0.00 | 0.00 | 75 | 1012.8 |
| 20260507000037 | 63 | 164 | 7.0 | 25.0 | 0.00 | 0.00 | 0.00 | 74 | 1012.7 |
| 20260506235514 | 63 | 165 | 10.0 | 25.0 | 0.00 | 0.00 | 0.00 | 74 | 1012.8 |
| 20260506235013 | 64 | 130 | 10.0 | 23.0 | 0.00 | 0.00 | 0.00 | 74 | 1012.8 |
| 20260506234536 | 64 | 168 | 11.0 | 23.0 | 0.00 | 0.00 | 0.00 | 74 | 1012.9 |
| 20260506234015 | 64 | 165 | 10.0 | 28.0 | 0.00 | 0.00 | 0.00 | 74 | 1012.9 |
| 20260506233516 | 64 | 173 | 12.0 | 28.0 | 0.00 | 0.00 | 0.00 | 73 | 1012.9 |
| 20260506233030 | 64 | 163 | 8.0 | 28.0 | 0.00 | 0.00 | 0.00 | 73 | 1012.9 |
| 20260506232515 | 64 | 168 | 10.0 | 21.0 | 0.00 | 0.00 | 0.00 | 73 | 1012.8 |
| 20260506232015 | 64 | 160 | 10.0 | 22.0 | 0.00 | 0.00 | 0.00 | 73 | 1012.7 |
| 20260506231533 | 64 | 179 | 8.0 | 23.0 | 0.00 | 0.00 | 0.00 | 72 | 1012.7 |
| 20260506231013 | 64 | 164 | 8.0 | 24.0 | 0.00 | 0.00 | 0.00 | 71 | 1012.6 |
| 20260506230514 | 64 | 185 | 13.0 | 24.0 | 0.00 | 0.00 | 0.00 | 71 | 1012.5 |
| 20260506230033 | 65 | 156 | 10.0 | 24.0 | 0.00 | 0.00 | 0.00 | 70 | 1012.7 |
| 20260506225516 | 65 | 148 | 9.0 | 21.0 | 0.00 | 0.00 | 0.00 | 70 | 1012.7 |
| 20260506225016 | 65 | 112 | 11.0 | 21.0 | 0.00 | 0.00 | 0.00 | 69 | 1012.8 |
| 20260506224533 | 65 | 141 | 7.0 | 17.0 | 0.00 | 0.00 | 0.00 | 69 | 1012.7 |
| 20260506224014 | 65 | 139 | 7.0 | 18.0 | 0.00 | 0.00 | 0.00 | 68 | 1012.6 |
| 20260506223513 | 65 | 127 | 7.0 | 25.0 | 0.00 | 0.00 | 0.00 | 68 | 1012.7 |
| 20260506223032 | 66 | 216 | 12.0 | 30.0 | 0.00 | 0.00 | 0.00 | 67 | 1012.8 |
| 20260506222514 | 66 | 148 | 10.0 | 31.0 | 0.00 | 0.00 | 0.00 | 66 | 1012.7 |
| 20260506222016 | 66 | 171 | 12.0 | 31.0 | 0.00 | 0.00 | 0.00 | 66 | 1012.6 |
| 20260506221536 | 66 | 138 | 11.0 | 28.0 | 0.00 | 0.00 | 0.00 | 65 | 1012.8 |
| 20260506221013 | 66 | 253 | 10.0 | 25.0 | 0.00 | 0.00 | 0.00 | 65 | 1012.5 |
| 20260506220514 | 66 | 180 | 10.0 | 20.0 | 0.00 | 0.00 | 0.00 | 65 | 1012.5 |
| 20260506220032 | 67 | 166 | 8.0 | 23.0 | 0.00 | 0.00 | 0.00 | 65 | 1012.7 |
| 20260506215514 | 67 | 187 | 5.0 | 24.0 | 0.00 | 0.00 | 0.00 | 64 | 1012.7 |
| 20260506215014 | 67 | 208 | 10.0 | 24.0 | 0.00 | 0.00 | 0.00 | 63 | 1012.7 |
| 20260506214529 | 67 | 167 | 10.0 | 26.0 | 0.00 | 0.00 | 0.00 | 63 | 1012.9 |
| 20260506214014 | 67 | 200 | 9.0 | 27.0 | 0.00 | 0.00 | 0.00 | 63 | 1012.9 |
| 20260506213515 | 67 | 153 | 12.0 | 27.0 | 0.00 | 0.00 | 0.00 | 62 | 1013.0 |
| 20260506213040 | 68 | 190 | 14.0 | 27.0 | 0.00 | 0.00 | 0.00 | 62 | 1013.2 |
| 20260506212514 | 68 | 220 | 8.0 | 23.0 | 0.00 | 0.00 | 0.00 | 63 | 1013.0 |
| 20260506212014 | 68 | 156 | 9.0 | 24.0 | 0.00 | 0.00 | 0.00 | 63 | 1013.1 |
| 20260506211540 | 68 | 206 | 12.0 | 26.0 | 0.00 | 0.00 | 0.00 | 62 | 1013.1 |
| 20260506211014 | 68 | 171 | 11.0 | 26.0 | 0.00 | 0.00 | 0.00 | 63 | 1012.9 |
| 20260506210514 | 68 | 143 | 12.0 | 32.0 | 0.00 | 0.00 | 0.00 | 62 | 1012.9 |
| 20260506210040 | 68 | 182 | 15.0 | 32.0 | 0.00 | 0.00 | 0.00 | 62 | 1013.0 |
| 20260506205514 | 68 | 201 | 13.0 | 23.0 | 0.00 | 0.00 | 0.00 | 63 | 1012.8 |
| 20260506205015 | 68 | 193 | 10.0 | 27.0 | 0.00 | 0.00 | 0.00 | 63 | 1012.8 |
| 20260506204533 | 68 | 162 | 11.0 | 36.0 | 0.00 | 0.00 | 0.00 | 62 | 1012.7 |
| 20260506204013 | 68 | 134 | 16.0 | 36.0 | 0.00 | 0.00 | 0.00 | 62 | 1012.8 |
| 20260506203514 | 69 | 190 | 13.0 | 28.0 | 0.00 | 0.00 | 0.00 | 61 | 1012.9 |
| 20260506203032 | 69 | 138 | 11.0 | 28.0 | 0.00 | 0.00 | 0.00 | 61 | 1012.7 |
| 20260506202514 | 69 | 189 | 10.0 | 27.0 | 0.00 | 0.00 | 0.00 | 60 | 1012.8 |
| 20260506202017 | 69 | 168 | 13.0 | 27.0 | 0.00 | 0.00 | 0.00 | 59 | 1012.6 |
| 20260506201536 | 70 | 195 | 11.0 | 23.0 | 0.00 | 0.00 | 0.00 | 60 | 1012.5 |
| 20260506201014 | 70 | 197 | 11.0 | 22.0 | 0.00 | 0.00 | 0.00 | 60 | 1012.5 |
| 20260506200513 | 70 | 181 | 12.0 | 31.0 | 0.00 | 0.00 | 0.00 | 61 | 1012.5 |
| 20260506200033 | 69 | 145 | 9.0 | 31.0 | 0.00 | 0.00 | 0.00 | 61 | 1012.5 |
| 20260506195517 | 70 | 181 | 12.0 | 31.0 | 0.00 | 0.00 | 0.00 | 60 | 1012.6 |
| 20260506195016 | 70 | 81 | 11.0 | 25.0 | 0.00 | 0.00 | 0.00 | 60 | 1012.6 |
| 20260506194530 | 70 | 212 | 12.0 | 25.0 | 0.00 | 0.00 | 0.00 | 60 | 1012.5 |
| 20260506194015 | 70 | 180 | 13.0 | 29.0 | 0.00 | 0.00 | 0.00 | 60 | 1012.5 |
| 20260506193514 | 70 | 191 | 15.0 | 35.0 | 0.00 | 0.00 | 0.00 | 60 | 1012.5 |
| 20260506193042 | 70 | 152 | 19.0 | 35.0 | 0.00 | 0.00 | 0.00 | 59 | 1012.5 |
| 20260506192517 | 71 | 129 | 9.0 | 27.0 | 0.00 | 0.00 | 0.00 | 59 | 1012.5 |
| 20260506192015 | 71 | 180 | 13.0 | 25.0 | 0.00 | 0.00 | 0.00 | 58 | 1012.5 |
| 20260506191530 | 71 | 191 | 11.0 | 31.0 | 0.00 | 0.00 | 0.00 | 58 | 1012.7 |
| 20260506191013 | 71 | 193 | 15.0 | 33.0 | 0.00 | 0.00 | 0.00 | 58 | 1012.6 |
| 20260506190518 | 71 | 129 | 15.0 | 33.0 | 0.00 | 0.00 | 0.00 | 57 | 1012.9 |
| 20260506190031 | 72 | 191 | 17.0 | 33.0 | 0.00 | 0.00 | 0.00 | 56 | 1013.1 |
| 20260506185514 | 73 | 141 | 11.0 | 31.0 | 0.00 | 0.00 | 0.00 | 55 | 1013.2 |
| 20260506185015 | 72 | 129 | 12.0 | 30.0 | 0.00 | 0.00 | 0.00 | 55 | 1012.7 |
| 20260506184532 | 73 | 165 | 11.0 | 27.0 | 0.00 | 0.00 | 0.00 | 56 | 1013.0 |
| 20260506184015 | 73 | 162 | 9.0 | 28.0 | 0.00 | 0.00 | 0.00 | 56 | 1013.1 |
| 20260506183514 | 73 | 126 | 13.0 | 28.0 | 0.00 | 0.00 | 0.00 | 56 | 1013.1 |
| 20260506183033 | 72 | 157 | 14.0 | 31.0 | 0.00 | 0.00 | 0.00 | 58 | 1013.2 |
| 20260506182514 | 71 | 143 | 15.0 | 33.0 | 0.00 | 0.00 | 0.00 | 60 | 1013.3 |
| 20260506182017 | 71 | 162 | 16.0 | 33.0 | 0.00 | 0.00 | 0.00 | 60 | 1013.5 |
| 20260506181540 | 71 | 141 | 14.0 | 29.0 | 0.00 | 0.00 | 0.00 | 60 | 1013.4 |
| 20260506181017 | 71 | 148 | 17.0 | 31.0 | 0.00 | 0.00 | 0.00 | 59 | 1013.4 |
| 20260506180519 | 72 | 137 | 13.0 | 31.0 | 0.00 | 0.00 | 0.00 | 59 | 1013.5 |
| 20260506180032 | 71 | 144 | 10.0 | 23.0 | 0.00 | 0.00 | 0.00 | 61 | 1013.4 |
| 20260506175516 | 71 | 187 | 11.0 | 25.0 | 0.00 | 0.00 | 0.00 | 60 | 1013.4 |
| 20260506175012 | 70 | 137 | 13.0 | 32.0 | 0.00 | 0.00 | 0.00 | 60 | 1013.5 |
| 20260506174534 | 71 | 141 | 14.0 | 32.0 | 0.00 | 0.00 | 0.00 | 59 | 1013.5 |
| 20260506174016 | 71 | 185 | 11.0 | 27.0 | 0.00 | 0.00 | 0.00 | 57 | 1013.5 |
| 20260506173515 | 72 | 162 | 11.0 | 28.0 | 0.00 | 0.00 | 0.00 | 58 | 1013.5 |
| 20260506173053 | 72 | 168 | 11.0 | 34.0 | 0.00 | 0.00 | 0.00 | 58 | 1013.6 |
| 20260506172513 | 72 | 208 | 16.0 | 34.0 | 0.00 | 0.00 | 0.00 | 57 | 1013.5 |
| 20260506172015 | 73 | 174 | 14.0 | 30.0 | 0.00 | 0.00 | 0.00 | 57 | 1013.5 |
| 20260506171539 | 73 | 173 | 7.0 | 30.0 | 0.00 | 0.00 | 0.00 | 59 | 1013.6 |
| 20260506171017 | 72 | 173 | 14.0 | 30.0 | 0.00 | 0.00 | 0.00 | 60 | 1013.5 |
| 20260506170514 | 72 | 189 | 11.0 | 28.0 | 0.00 | 0.00 | 0.00 | 59 | 1013.5 |
| 20260506170048 | 71 | 161 | 13.0 | 29.0 | 0.00 | 0.00 | 0.00 | 61 | 1013.6 |
| 20260506165517 | 70 | 108 | 17.0 | 29.0 | 0.00 | 0.00 | 0.00 | 61 | 1013.6 |
| 20260506165014 | 70 | 154 | 8.0 | 28.0 | 0.00 | 0.00 | 0.00 | 63 | 1013.8 |
| 20260506164533 | 71 | 215 | 11.0 | 29.0 | 0.00 | 0.00 | 0.00 | 62 | 1013.8 |